Regional Weather Roundup
Issued by NWS New Orleans/Baton Rouge, LA

Home | Current Version | Previous Version | Text Only | Print | Product List | Glossary On
Versions: 1 2 3 4 5 6 7 8 9 10 11 12 13 14 15 16 17 18 19 20 21 22 23 24 25 26 27 28 29 30 31 32 33 34 35 36 37 38 39 40 41 42 43 44 45 46 47 48 49 50
000
ASUS44 KLIX 281313
RWRLIX
NEW ORLEANS REGIONAL WEATHER ROUNDUP
NATIONAL WEATHER SERVICE NEW ORLEANS LA
800 AM CDT TUE MAR 28 2017

NOTE: "FAIR" INDICATES FEW OR NO CLOUDS BELOW 12,000 FEET WITH NO
      SIGNIFICANT WEATHER AND/OR OBSTRUCTIONS TO VISIBILITY.
      SKY/WX - SKY CONDITION AND SIGNIFICANT WEATHER.
      TMP - AIR TEMPERATURE.     DP    - DEWPOINT TEMPERATURE.
      RH  - RELATIVE HUMIDITY.   PRES  - PRESSURE.
      HI  - HEAT INDEX.          WCI   - WIND CHILL INDEX.

*  THESE STATIONS ARE NOT NWS OR FAA STATIONS AND ARE NOT UNDER
   NWS QUALITY CONTROL.

LAZ038-040-048-061>063-065>067-069-281400-
SOUTHEAST LOUISIANA

CITY           SKY/WX    TMP DP  RH WIND       PRES   REMARKS
N.O. INTL ARPT MOSUNNY   71  70  96 CALM      30.00R
N.O. LAKEFRONT PTSUNNY   72  70  93 CALM      30.01R
N.O. DOWNTOWN*   N/A     73  69  87 VRB3      30.01R
RESERVE*       CLOUDY    73  71  93 CALM      30.00R
SLIDELL        CLOUDY    69  67  93 CALM      30.00R
BATON ROUGE    CLOUDY    72  70  93 S6        29.98R FOG
BOOTHVILLE     MOSUNNY   69  69 100 SE3       30.01R
BELLE CHASSE   PTSUNNY   73  69  87 CALM      30.00R
BOGALUSA*      NOT AVBL
GALLIANO*      PTSUNNY   69  67  92 CALM      29.99R
NEW ROADS*       N/A     69  69 100 SE3       29.98R FOG
GONZALES*      FOG       65  65 100 CALM      29.98R VSB<1/4
HAMMOND*       FOG       64  63  94 CALM      30.00R VSB 1/2
HOUMA*         MOSUNNY   70  70 100 CALM      29.99R
PORT FOURCHON* MOSUNNY   73  70  88 S7        30.00R

$$

MSZ070-080>082-281400-
SOUTHERN MISSISSIPPI

CITY           SKY/WX    TMP DP  RH WIND       PRES   REMARKS
MCCOMB         CLOUDY    69  67  93 S6        29.99R FOG
GULFPORT       CLOUDY    72  69  90 CALM      30.01R
BILOXI         MOSUNNY   72  70  92 S8        30.01R
PASCAGOULA     MOSUNNY   70  68  93 CALM      30.02R
STENNIS ARPT*  MOSUNNY   64  61  88 CALM      30.01R FOG

$$

COASTAL OBSERVATIONS
LAKE AND NEARSHORE STATIONS

STATION/POSITION TIME  TEMP    WIND        PRES    WAVE
                       AIR SEA DIR/SP/G            HT/PER
                 (UTC) (F)     (DEG/KT/KT) (MB)    (FT/S)
PASCAGOULA       1248   72     210/  8/ 10 1016.2
WAVELAND YACHT   1248   72 75  190/  3/  5 1015.9
GRAND ISLE       1242   73 75  170/  3/  5 1015.5
SOUTHWEST PASS   1236          150/  2/  2   N/A
NEW CANAL        1248   71 72   CALM  /  1 1015.7
SHELL BEACH      1248   72 75  140/  4/  5 1016.1

OFFSHORE STATIONS

STATION/POSITION TIME  TEMP    WIND        PRES    WAVE
                       AIR SEA DIR/SP/G            HT/PER
                 (UTC) (F)     (DEG/KT/KT) (MB)    (FT/S)
64 S DAUPHIN ISL 1250   73 73  180/  6/ 10 1016.6    3/ 5

$$




USA.gov is the U.S. government's official web portal to all federal, state and local government web resources and services.